[[{"header":{"parameterUnit":"m.s-1","parameterCategory":2,"la1":30.2992,"la2":30.254,"lo1":-89.0895,"lo2":-89.0443,"dy":0.0025,"dx":0.0025,"nx":19,"ny":19,"refTime":"2026-03-27T03:00:00:Z","depth":"0","parameterNumber":2,"parameterNumberName":"U-component_of_CURRENTS"},"data":[0,0,0,-0.1613,-0.1614,-0.1633,-0.1633,-0.166,-0.166,0,0,0,0,0,0,0,0,0,0,0,-0.1601,-0.1601,-0.1613,-0.1614,-0.1633,-0.1633,-0.166,-0.166,0,0,0,0,0,0,0,0,0,0,0,-0.1601,-0.1601,-0.1601,-0.1614,-0.1633,-0.1633,-0.166,-0.1644,0,0,0,0,0,0,0,0,0,0,-0.1625,-0.161,-0.1601,-0.1601,-0.1614,-0.1633,-0.1633,-0.1643,-0.1645,-0.1653,0,-0.1654,0,-0.1662,-0.1662,-0.1662,0,0,0,-0.1611,-0.1609,-0.162,-0.1601,-0.1614,-0.1633,-0.1623,-0.1644,-0.1646,-0.1656,-0.1655,-0.1656,-0.1663,-0.1662,-0.1663,-0.172,-0.172,0,0,-0.161,-0.16,-0.1618,-0.1621,-0.1617,-0.1623,-0.1624,-0.1645,-0.1643,-0.1655,-0.1657,-0.1663,-0.1663,-0.1663,-0.172,-0.172,0,0,0,-0.1609,-0.1599,-0.1609,-0.1619,-0.1625,-0.1623,-0.1625,-0.1642,-0.1647,-0.1657,-0.1663,-0.1663,-0.1663,-0.1719,-0.172,-0.1747,0,0,0,-0.1608,-0.1599,-0.1608,-0.1602,-0.1625,-0.1633,-0.1621,-0.1645,-0.1648,-0.1663,-0.1663,-0.1663,-0.1719,-0.172,-0.1746,-0.175,0,0,0,-0.16,-0.1599,-0.1601,-0.1602,-0.1613,-0.1633,-0.1638,-0.1646,-0.1652,-0.1662,-0.1664,-0.1719,-0.1719,-0.1744,-0.1747,-0.1757,0,0,0,-0.159,-0.1603,-0.1601,-0.1623,-0.1613,-0.1653,-0.1638,-0.1661,-0.1672,-0.1663,-0.1719,-0.172,-0.1744,-0.1746,-0.1756,-0.1721,-0.1724,0,0,-0.1606,-0.1605,-0.1622,-0.162,-0.1662,-0.1651,-0.1695,-0.1696,-0.1689,-0.171,-0.1712,-0.1746,-0.1747,-0.1757,-0.1775,-0.1776,0,0,0,-0.1627,-0.1635,-0.165,-0.167,-0.1695,-0.1716,-0.1721,-0.1724,-0.1738,-0.17,-0.1757,-0.1757,-0.1762,-0.1739,-0.1741,-0.1751,-0.1724,-0.1724,-0.1724,-0.1624,-0.1649,-0.1678,-0.171,-0.1736,-0.1764,-0.1779,-0.1784,-0.1775,-0.1785,-0.1788,-0.1825,-0.1802,-0.1802,-0.1815,-0.1802,-0.1802,-0.1802,-0.1802,-0.1641,-0.1654,-0.1692,-0.1726,-0.176,-0.1793,-0.1831,-0.1828,-0.1844,-0.1828,-0.1831,-0.178,-0.1805,-0.1818,-0.1804,-0.1804,-0.1804,-0.1804,-0.1803,-0.1624,-0.1634,-0.166,-0.1708,-0.1755,-0.18,-0.1836,-0.1859,-0.1862,-0.1872,-0.1835,-0.1833,-0.1835,-0.187,-0.187,-0.187,-0.187,-0.187,-0.187,-0.1584,-0.1617,-0.163,-0.169,-0.1713,-0.1765,-0.1832,-0.185,-0.1862,-0.1858,-0.1857,-0.1852,-0.1845,-0.1832,-0.1872,-0.1871,-0.1871,-0.1871,-0.1871,-0.1547,-0.1563,-0.1579,-0.16,-0.1661,-0.1684,-0.1777,-0.1821,-0.1847,-0.1843,-0.1854,-0.185,-0.1833,-0.1831,-0.1818,-0.1852,-0.1852,-0.1852,-0.1852,-0.1503,-0.1521,-0.1515,-0.1532,-0.1574,-0.1638,-0.1665,-0.1738,-0.1804,-0.1819,-0.1854,-0.1838,-0.1838,-0.1822,-0.182,-0.1806,-0.1837,-0.1837,-0.1837,-0.1461,-0.1472,-0.1442,-0.1477,-0.1521,-0.1568,-0.1577,-0.1695,-0.1803,-0.1839,-0.188,-0.1881,-0.1861,-0.186,-0.1835,-0.1832,-0.1809,0,0]},{"header":{"parameterUnit":"m.s-1","parameterCategory":2,"la1":30.2992,"la2":30.254,"lo1":-89.0895,"lo2":-89.0443,"dy":0.0025,"dx":0.0025,"nx":19,"ny":19,"refTime":"2026-03-27T03:00:00:Z","depth":"0","parameterNumber":3,"parameterNumberName":"V-component_of_CURRENTS"},"data":[0,0,0,-0.0412,-0.0412,-0.0378,-0.0378,-0.0311,-0.0311,0,0,0,0,0,0,0,0,0,0,0,-0.0423,-0.0423,-0.0413,-0.0412,-0.0378,-0.0378,-0.0312,-0.0311,0,0,0,0,0,0,0,0,0,0,0,-0.0423,-0.0423,-0.0423,-0.0412,-0.0378,-0.0378,-0.0312,-0.0341,0,0,0,0,0,0,0,0,0,0,-0.0376,-0.0392,-0.0423,-0.0423,-0.0412,-0.0378,-0.0378,-0.0343,-0.0339,-0.0322,0,-0.0322,0,-0.0318,-0.0307,-0.0306,0,0,0,-0.0404,-0.0395,-0.0387,-0.0423,-0.0412,-0.0379,-0.0391,-0.0341,-0.0337,-0.0318,-0.0321,-0.0319,-0.0317,-0.0306,-0.0306,-0.025,-0.025,0,0,-0.0406,-0.0413,-0.039,-0.0385,-0.0408,-0.0392,-0.039,-0.0339,-0.0336,-0.0321,-0.0317,-0.0316,-0.0306,-0.0305,-0.025,-0.025,0,0,0,-0.0417,-0.0415,-0.0408,-0.0388,-0.0385,-0.0392,-0.0389,-0.0338,-0.0336,-0.0316,-0.0315,-0.0305,-0.0305,-0.025,-0.025,-0.0295,0,0,0,-0.0417,-0.0421,-0.0409,-0.0412,-0.0387,-0.0365,-0.039,-0.034,-0.0334,-0.0315,-0.0305,-0.0304,-0.025,-0.025,-0.0294,-0.0327,0,0,0,-0.0423,-0.0422,-0.042,-0.0413,-0.0402,-0.0366,-0.0361,-0.0338,-0.0333,-0.0306,-0.0304,-0.025,-0.025,-0.0293,-0.0325,-0.0315,0,0,0,-0.0429,-0.044,-0.042,-0.0432,-0.0403,-0.0393,-0.0361,-0.0346,-0.0326,-0.0305,-0.025,-0.025,-0.0293,-0.0324,-0.0314,-0.0308,-0.0312,0,0,-0.045,-0.0443,-0.0451,-0.0433,-0.0441,-0.0397,-0.0389,-0.0349,-0.0312,-0.0264,-0.0263,-0.0294,-0.0325,-0.0315,-0.0289,-0.0294,0,0,0,-0.0463,-0.0471,-0.0469,-0.0468,-0.0448,-0.0427,-0.0382,-0.0351,-0.0306,-0.03,-0.0275,-0.0292,-0.0285,-0.0279,-0.0282,-0.0158,-0.0248,-0.0248,-0.0248,-0.05,-0.0495,-0.0514,-0.0504,-0.049,-0.0442,-0.0415,-0.036,-0.0323,-0.0303,-0.0314,-0.032,-0.0313,-0.0316,-0.0188,-0.0289,-0.0289,-0.0289,-0.0289,-0.0549,-0.0568,-0.0553,-0.0571,-0.0537,-0.052,-0.0445,-0.0408,-0.0354,-0.0328,-0.0317,-0.0309,-0.0322,-0.0184,-0.0292,-0.0292,-0.0291,-0.0291,-0.0291,-0.0586,-0.0597,-0.0604,-0.0625,-0.0618,-0.0573,-0.0551,-0.0484,-0.0404,-0.0395,-0.0357,-0.0356,-0.0247,-0.038,-0.038,-0.038,-0.0381,-0.0381,-0.0381,-0.0624,-0.0632,-0.0672,-0.0684,-0.0698,-0.0689,-0.0614,-0.057,-0.0475,-0.0409,-0.0408,-0.0227,-0.0347,-0.0357,-0.0382,-0.0382,-0.0382,-0.0382,-0.0381,-0.0677,-0.068,-0.0745,-0.0773,-0.0807,-0.0822,-0.074,-0.0629,-0.0552,-0.0503,-0.0252,-0.0397,-0.0379,-0.0375,-0.0384,-0.0416,-0.0416,-0.0416,-0.0416,-0.0712,-0.072,-0.0813,-0.087,-0.0908,-0.0885,-0.0856,-0.0708,-0.0421,-0.0261,-0.0195,-0.0156,-0.0161,-0.0126,-0.0128,-0.0131,-0.0097,-0.0096,-0.0096,-0.075,-0.0777,-0.085,-0.0909,-0.0956,-0.0954,-0.0933,-0.0767,-0.0315,-0.0069,-0.0021,-0.0035,0.0036,0.0019,0.0084,0.0071,0.0071,0,0]}],[{"header":{"parameterUnit":"m.s-1","parameterCategory":2,"la1":30.2992,"la2":30.254,"lo1":-89.0895,"lo2":-89.0443,"dy":0.0025,"dx":0.0025,"nx":19,"ny":19,"refTime":"2026-03-27T03:00:00:Z","depth":"2","parameterNumber":2,"parameterNumberName":"U-component_of_CURRENTS"},"data":[0,0,0,-0.1507,-0.1507,-0.1529,-0.1529,-0.1554,-0.1554,0,0,0,0,0,0,0,0,0,0,0,-0.1494,-0.1494,-0.1507,-0.1507,-0.1529,-0.1529,-0.1554,-0.1554,0,0,0,0,0,0,0,0,0,0,0,-0.1494,-0.1494,-0.1494,-0.1507,-0.1529,-0.1529,-0.1554,-0.1537,0,0,0,0,0,0,0,0,0,0,-0.1517,-0.1503,-0.1494,-0.1494,-0.1508,-0.1529,-0.1529,-0.1537,-0.1538,-0.1544,0,-0.1547,0,-0.1555,-0.1556,-0.1556,0,0,0,-0.1504,-0.1502,-0.1512,-0.1494,-0.1508,-0.1529,-0.1518,-0.1538,-0.154,-0.1547,-0.1547,-0.1548,-0.1555,-0.1556,-0.1556,-0.1609,-0.1609,0,0,-0.1503,-0.1494,-0.1511,-0.1513,-0.1512,-0.1517,-0.1519,-0.1539,-0.1538,-0.1547,-0.1549,-0.1556,-0.1556,-0.1556,-0.1609,-0.1609,0,0,0,-0.1502,-0.1493,-0.1503,-0.1512,-0.1519,-0.1518,-0.152,-0.1536,-0.1541,-0.1549,-0.1556,-0.1556,-0.1557,-0.1608,-0.1609,-0.1636,0,0,0,-0.1501,-0.1493,-0.1502,-0.1497,-0.1518,-0.1528,-0.1517,-0.1539,-0.1542,-0.1556,-0.1556,-0.1557,-0.1608,-0.1608,-0.1634,-0.1638,0,0,0,-0.1493,-0.1492,-0.1495,-0.1497,-0.1508,-0.1528,-0.1533,-0.154,-0.1547,-0.1556,-0.1557,-0.1607,-0.1608,-0.1633,-0.1635,-0.1645,0,0,0,-0.1483,-0.1497,-0.1495,-0.1516,-0.1508,-0.1547,-0.1533,-0.1556,-0.1566,-0.1557,-0.1608,-0.1609,-0.1632,-0.1634,-0.1644,-0.1604,-0.1606,0,0,-0.1498,-0.1498,-0.1514,-0.1513,-0.1552,-0.1543,-0.1585,-0.1587,-0.1581,-0.1599,-0.1601,-0.1634,-0.1635,-0.1645,-0.1654,-0.1654,0,0,0,-0.1519,-0.1526,-0.1539,-0.1559,-0.1583,-0.1603,-0.161,-0.1613,-0.1627,-0.1592,-0.1645,-0.1644,-0.1649,-0.1623,-0.1624,-0.1613,-0.1613,-0.1613,-0.1612,-0.1516,-0.1539,-0.1565,-0.1594,-0.1619,-0.1647,-0.1662,-0.1667,-0.166,-0.167,-0.1674,-0.1709,-0.1683,-0.1683,-0.1687,-0.1687,-0.1687,-0.1687,-0.1687,-0.153,-0.1541,-0.1576,-0.1608,-0.164,-0.1671,-0.1708,-0.1708,-0.1725,-0.171,-0.1714,-0.1662,-0.1685,-0.169,-0.1689,-0.1689,-0.1689,-0.1689,-0.1688,-0.1514,-0.1522,-0.1547,-0.1591,-0.1634,-0.1678,-0.1713,-0.1738,-0.1743,-0.1753,-0.1714,-0.1713,-0.1713,-0.1754,-0.1754,-0.1754,-0.1754,-0.1754,-0.1754,-0.1475,-0.1505,-0.1517,-0.1573,-0.1594,-0.1644,-0.171,-0.1728,-0.1741,-0.1736,-0.1736,-0.1732,-0.1729,-0.1717,-0.1755,-0.1755,-0.1755,-0.1755,-0.1755,-0.1437,-0.1453,-0.1467,-0.1486,-0.1541,-0.1556,-0.1651,-0.1694,-0.1722,-0.1717,-0.1725,-0.1726,-0.1709,-0.1707,-0.1694,-0.1725,-0.1725,-0.1725,-0.1725,-0.1395,-0.1412,-0.1403,-0.1416,-0.1453,-0.1506,-0.1507,-0.1536,-0.1597,-0.1587,-0.1592,-0.1563,-0.1568,-0.1541,-0.1544,-0.1527,-0.1513,-0.1513,-0.1512,-0.1353,-0.1363,-0.1332,-0.1362,-0.1399,-0.1429,-0.1388,-0.1352,-0.1388,-0.1501,-0.1525,-0.1717,-0.1689,-0.1691,-0.1661,-0.1661,-0.1638,0,0]},{"header":{"parameterUnit":"m.s-1","parameterCategory":2,"la1":30.2992,"la2":30.254,"lo1":-89.0895,"lo2":-89.0443,"dy":0.0025,"dx":0.0025,"nx":19,"ny":19,"refTime":"2026-03-27T03:00:00:Z","depth":"2","parameterNumber":3,"parameterNumberName":"V-component_of_CURRENTS"},"data":[0,0,0,-0.0336,-0.0335,-0.0305,-0.0305,-0.0246,-0.0245,0,0,0,0,0,0,0,0,0,0,0,-0.0345,-0.0345,-0.0336,-0.0335,-0.0305,-0.0305,-0.0246,-0.0245,0,0,0,0,0,0,0,0,0,0,0,-0.0345,-0.0345,-0.0345,-0.0335,-0.0305,-0.0305,-0.0246,-0.0272,0,0,0,0,0,0,0,0,0,0,-0.0303,-0.0318,-0.0345,-0.0345,-0.0335,-0.0305,-0.0305,-0.0273,-0.027,-0.0256,0,-0.0256,0,-0.0252,-0.0241,-0.0241,0,0,0,-0.0327,-0.0321,-0.0313,-0.0345,-0.0335,-0.0305,-0.0317,-0.0272,-0.0268,-0.0252,-0.0255,-0.0253,-0.0251,-0.0241,-0.0241,-0.0199,-0.0199,0,0,-0.0329,-0.0336,-0.0316,-0.0312,-0.0333,-0.0318,-0.0316,-0.027,-0.0268,-0.0255,-0.0252,-0.025,-0.0241,-0.024,-0.0199,-0.0199,0,0,0,-0.0339,-0.0338,-0.0331,-0.0314,-0.0312,-0.0317,-0.0315,-0.027,-0.0268,-0.0251,-0.025,-0.024,-0.024,-0.0199,-0.0199,-0.0245,0,0,0,-0.034,-0.0344,-0.0332,-0.0336,-0.0313,-0.0294,-0.0316,-0.0271,-0.0266,-0.025,-0.024,-0.0239,-0.0199,-0.0199,-0.0244,-0.0275,0,0,0,-0.0345,-0.0345,-0.0343,-0.0337,-0.0327,-0.0295,-0.029,-0.027,-0.0265,-0.0241,-0.0239,-0.0199,-0.0199,-0.0243,-0.0273,-0.0261,0,0,0,-0.0351,-0.0365,-0.0343,-0.0359,-0.0328,-0.0323,-0.029,-0.0279,-0.0262,-0.024,-0.0199,-0.0199,-0.0243,-0.0271,-0.026,-0.0252,-0.0256,0,0,-0.0375,-0.0367,-0.0378,-0.0359,-0.0372,-0.0326,-0.0326,-0.0288,-0.0253,-0.0212,-0.0211,-0.0244,-0.0272,-0.0261,-0.0247,-0.0251,0,0,0,-0.039,-0.04,-0.0399,-0.0401,-0.0383,-0.0365,-0.0324,-0.0295,-0.0255,-0.0243,-0.0229,-0.0246,-0.0237,-0.023,-0.0233,-0.0199,-0.0199,-0.0199,-0.0199,-0.0431,-0.0427,-0.0449,-0.0442,-0.0431,-0.0388,-0.0364,-0.0314,-0.0278,-0.0262,-0.0272,-0.0281,-0.0274,-0.0276,-0.0252,-0.0252,-0.0252,-0.0252,-0.0252,-0.0484,-0.0504,-0.0491,-0.0513,-0.0482,-0.047,-0.0401,-0.0367,-0.0317,-0.0292,-0.0281,-0.0265,-0.0283,-0.0256,-0.0255,-0.0255,-0.0254,-0.0254,-0.0254,-0.0522,-0.0533,-0.0542,-0.0568,-0.0565,-0.0524,-0.0506,-0.0443,-0.0366,-0.0358,-0.0317,-0.0316,-0.031,-0.0342,-0.0342,-0.0343,-0.0343,-0.0343,-0.0343,-0.0559,-0.0569,-0.0611,-0.0627,-0.0642,-0.0636,-0.0567,-0.0524,-0.0432,-0.0369,-0.0368,-0.0311,-0.0308,-0.0314,-0.0344,-0.0344,-0.0344,-0.0344,-0.0344,-0.0614,-0.0617,-0.0683,-0.0712,-0.0749,-0.0763,-0.0687,-0.0579,-0.0504,-0.0455,-0.0356,-0.0355,-0.0335,-0.0331,-0.0337,-0.0371,-0.0371,-0.0371,-0.0371,-0.0649,-0.0657,-0.075,-0.0808,-0.0847,-0.0824,-0.0789,-0.064,-0.0473,-0.0375,-0.0374,-0.036,-0.0358,-0.0338,-0.0334,-0.0339,-0.0374,-0.0374,-0.0374,-0.0686,-0.0714,-0.0787,-0.0846,-0.0894,-0.0887,-0.0853,-0.0671,-0.0423,-0.0375,-0.0379,-0.037,-0.0347,-0.0346,-0.0311,-0.0307,-0.0313,0,0]}],[{"header":{"parameterUnit":"m.s-1","parameterCategory":2,"la1":30.2992,"la2":30.254,"lo1":-89.0895,"lo2":-89.0443,"dy":0.0025,"dx":0.0025,"nx":19,"ny":19,"refTime":"2026-03-27T03:00:00:Z","depth":"4","parameterNumber":2,"parameterNumberName":"U-component_of_CURRENTS"},"data":[0,0,0,-0.1133,-0.1135,-0.1216,-0.1217,-0.1279,-0.1279,0,0,0,0,0,0,0,0,0,0,0,-0.1107,-0.1108,-0.1133,-0.1135,-0.1216,-0.1217,-0.1279,-0.1279,0,0,0,0,0,0,0,0,0,0,0,-0.1107,-0.1108,-0.1108,-0.1135,-0.1216,-0.1217,-0.1279,-0.1228,0,0,0,0,0,0,0,0,0,0,-0.1155,-0.1138,-0.1107,-0.1108,-0.1136,-0.1216,-0.1217,-0.1226,-0.1231,-0.123,0,-0.1247,0,-0.1263,-0.1283,-0.1283,0,0,0,-0.1137,-0.1134,-0.1153,-0.1109,-0.1137,-0.1216,-0.118,-0.1229,-0.1235,-0.1236,-0.1248,-0.1251,-0.1264,-0.1283,-0.1283,-0.1343,-0.1343,0,0,-0.1132,-0.1124,-0.115,-0.1157,-0.1163,-0.1177,-0.1183,-0.1233,-0.1242,-0.1248,-0.1252,-0.1265,-0.1283,-0.1284,-0.1343,-0.1343,0,0,0,-0.1118,-0.112,-0.1139,-0.1154,-0.1171,-0.118,-0.1186,-0.124,-0.1246,-0.1253,-0.1265,-0.1283,-0.1284,-0.1342,-0.1343,-0.1364,0,0,0,-0.1116,-0.1112,-0.1137,-0.1133,-0.1171,-0.1213,-0.1191,-0.1242,-0.1249,-0.1265,-0.1283,-0.1284,-0.1342,-0.1343,-0.1363,-0.1364,0,0,0,-0.1103,-0.1111,-0.1121,-0.1133,-0.1167,-0.1213,-0.1222,-0.1244,-0.1256,-0.1283,-0.1285,-0.1342,-0.1343,-0.1362,-0.1362,-0.1375,0,0,0,-0.1089,-0.1109,-0.1121,-0.1152,-0.1166,-0.1221,-0.1222,-0.1268,-0.1294,-0.1284,-0.1342,-0.1343,-0.1362,-0.1361,-0.1374,-0.1226,0,0,0,-0.1103,-0.1111,-0.1129,-0.1142,-0.1189,-0.1209,-0.1261,-0.1295,-0.1302,-0.1322,-0.1324,-0.1364,-0.1362,-0.1375,-0.1271,0,0,0,0,-0.1127,-0.1138,-0.1156,-0.1189,-0.1228,-0.1265,-0.1301,-0.1315,-0.135,-0.1321,-0.1373,-0.1371,-0.1378,-0.1289,-0.1347,-0.1346,-0.1346,-0.1346,-0.1346,-0.112,-0.1147,-0.1178,-0.1216,-0.1254,-0.1309,-0.1339,-0.1363,-0.1371,-0.139,-0.1396,-0.1428,-0.1336,-0.1408,-0.1408,-0.1408,-0.1408,-0.1408,-0.1409,-0.1123,-0.1132,-0.1183,-0.1224,-0.1273,-0.1321,-0.1375,-0.1392,-0.1427,-0.1422,-0.1429,-0.1327,-0.1411,-0.141,-0.141,-0.141,-0.141,-0.1409,-0.1409,-0.1092,-0.1099,-0.1142,-0.1202,-0.1264,-0.1328,-0.1368,-0.1416,-0.1441,-0.1456,-0.1363,-0.1442,-0.1432,-0.1466,-0.1467,-0.1467,-0.1467,-0.1467,-0.1467,-0.1031,-0.1074,-0.1103,-0.1178,-0.1216,-0.128,-0.1369,-0.1387,-0.1432,-0.1367,-0.1466,-0.1448,-0.1446,-0.1435,-0.1468,-0.1468,-0.1468,-0.1467,-0.1467,-0.0968,-0.1003,-0.1031,-0.107,-0.115,-0.1184,-0.1297,-0.1309,-0.1317,-0.1287,-0.1316,-0.1323,-0.1299,-0.1301,-0.1284,-0.1273,-0.1272,-0.127,0,-0.0914,-0.0937,-0.0957,-0.0988,-0.102,-0.1114,-0.11,-0.1149,-0.1189,-0.1152,-0.1306,-0.1338,-0.1342,-0.1314,-0.1313,-0.1292,0,0,0,-0.0866,-0.0883,-0.0868,-0.0919,-0.0947,-0.0995,-0.1087,-0.1065,-0.1192,-0.1161,-0.1225,-0.1236,-0.1382,-0.1471,-0.1451,-0.1449,-0.1431,0,0]},{"header":{"parameterUnit":"m.s-1","parameterCategory":2,"la1":30.2992,"la2":30.254,"lo1":-89.0895,"lo2":-89.0443,"dy":0.0025,"dx":0.0025,"nx":19,"ny":19,"refTime":"2026-03-27T03:00:00:Z","depth":"4","parameterNumber":3,"parameterNumberName":"V-component_of_CURRENTS"},"data":[0,0,0,-0.0191,-0.0191,-0.0184,-0.0184,-0.016,-0.0159,0,0,0,0,0,0,0,0,0,0,0,-0.0194,-0.0194,-0.0191,-0.0191,-0.0184,-0.0184,-0.016,-0.0159,0,0,0,0,0,0,0,0,0,0,0,-0.0194,-0.0194,-0.0194,-0.0191,-0.0184,-0.0184,-0.016,-0.0167,0,0,0,0,0,0,0,0,0,0,-0.0176,-0.0184,-0.0194,-0.0194,-0.0191,-0.0184,-0.0184,-0.0168,-0.0167,-0.016,0,-0.0164,0,-0.0163,-0.0158,-0.0158,0,0,0,-0.0186,-0.0185,-0.0182,-0.0194,-0.0191,-0.0184,-0.0186,-0.0168,-0.0166,-0.0159,-0.0163,-0.0162,-0.0163,-0.0158,-0.0158,-0.0165,-0.0166,0,0,-0.0186,-0.0191,-0.0183,-0.0182,-0.0195,-0.0186,-0.0186,-0.0167,-0.0168,-0.0163,-0.0162,-0.0162,-0.0158,-0.0157,-0.0165,-0.0165,0,0,0,-0.0191,-0.0191,-0.019,-0.0183,-0.0184,-0.0186,-0.0185,-0.0169,-0.0168,-0.0162,-0.0162,-0.0158,-0.0157,-0.0165,-0.0165,-0.0211,0,0,0,-0.0191,-0.0194,-0.019,-0.0192,-0.0185,-0.0179,-0.0188,-0.017,-0.0168,-0.0162,-0.0158,-0.0157,-0.0165,-0.0165,-0.0209,-0.0231,0,0,0,-0.0193,-0.0195,-0.0196,-0.0193,-0.0192,-0.0179,-0.0178,-0.0169,-0.0168,-0.0158,-0.0157,-0.0164,-0.0165,-0.0208,-0.0228,-0.0214,0,0,0,-0.0195,-0.0214,-0.0196,-0.022,-0.0192,-0.021,-0.0178,-0.0183,-0.0179,-0.0157,-0.0165,-0.0165,-0.0207,-0.0226,-0.0213,-0.0219,0,0,0,-0.0224,-0.0218,-0.0234,-0.0217,-0.0248,-0.021,-0.0235,-0.0211,-0.0184,-0.0168,-0.0168,-0.021,-0.0228,-0.0214,-0.0254,0,0,0,0,-0.0246,-0.0259,-0.0265,-0.0278,-0.0276,-0.0275,-0.025,-0.0233,-0.0215,-0.0184,-0.0209,-0.0219,-0.0208,-0.0209,-0.0168,-0.0168,-0.0168,-0.0168,-0.0168,-0.0286,-0.0292,-0.0326,-0.0333,-0.0337,-0.0319,-0.0309,-0.028,-0.0252,-0.0249,-0.0256,-0.0277,-0.0282,-0.0254,-0.0254,-0.0254,-0.0254,-0.0254,-0.0254,-0.034,-0.0363,-0.037,-0.0405,-0.0397,-0.0407,-0.0369,-0.0342,-0.0314,-0.0295,-0.0281,-0.0258,-0.0259,-0.0258,-0.0257,-0.0257,-0.0257,-0.0256,-0.0256,-0.0368,-0.0382,-0.0405,-0.0451,-0.0473,-0.0459,-0.0456,-0.0416,-0.0357,-0.0351,-0.0319,-0.0297,-0.0291,-0.0335,-0.0335,-0.0335,-0.0335,-0.0336,-0.0336,-0.0385,-0.041,-0.0459,-0.0499,-0.0528,-0.0541,-0.0506,-0.0471,-0.0409,-0.0371,-0.0358,-0.0304,-0.0301,-0.0295,-0.0336,-0.0336,-0.0336,-0.0336,-0.0336,-0.0419,-0.043,-0.0503,-0.0544,-0.0607,-0.0608,-0.0578,-0.0491,-0.0449,-0.0396,-0.0364,-0.0362,-0.0338,-0.0334,-0.0328,-0.0381,-0.0381,-0.0381,0,-0.0435,-0.0449,-0.0546,-0.0614,-0.0659,-0.0649,-0.0599,-0.0542,-0.045,-0.045,-0.0446,-0.0415,-0.0411,-0.0388,-0.0385,-0.0381,0,0,0,-0.0458,-0.0488,-0.0558,-0.0632,-0.0683,-0.0624,-0.0584,-0.0548,-0.0472,-0.0418,-0.0387,-0.0385,-0.038,-0.0339,-0.0296,-0.0293,-0.028,0,0]}]]